Regional Weather Roundup
Issued by NWS

Home | Current Version | Previous Version | Text Only | Print | Product List | Glossary On
Versions: 1 2 3 4 5 6 7 8 9 10 11 12 13 14 15 16 17 18 19 20 21 22 23 24 25 26 27 28 29 30 31 32 33 34 35 36 37 38 39 40 41 42 43 44 45 46 47 48 49 50
000
ASUS43 KFSD 232002
RWRSD

WEATHER ROUNDUP FOR SOUTH DAKOTA
NATIONAL WEATHER SERVICE SIOUX FALLS SD
200 PM CST MON JAN 23 2017

NOTE: "FAIR" INDICATES FEW OR NO CLOUDS BELOW 12,000 FEET WITH NO
SIGNIFICANT WEATHER AND/OR OBSTRUCTIONS TO VISIBILITY.


SDZ001>005-009-010-012>017-232100-
NORTHWEST AND NORTH CENTRAL SOUTH DAKOTA

CITY           SKY/WX    TMP DP  RH WIND       PRES   REMARKS
BUFFALO          N/A     26  21  81 E7        29.60F WCI  18
FAITH            N/A     27  25  92 E8        29.67F WCI  19
MOBRIDGE       CLOUDY    29  24  82 E5        29.73F WCI  24
$$

SDZ012>016-024>037-041>051-057-063-072>074-232100-
SOUTHWEST AND SOUTH CENTRAL SOUTH DAKOTA

CITY           SKY/WX    TMP DP  RH WIND       PRES   REMARKS
RAPID CTY ARPT CLOUDY    24  21  88 N15       29.61F WCI  11
PIERRE         CLOUDY    29  26  89 E13       29.70F WCI  19
CUSTER         SUNNY     35  23  61 VRB7      29.52F WCI  29
ELLSWORTH AFB  CLOUDY    23  23 100 N12       29.61  WCI  12
PHILIP         CLOUDY    28  27  96 E8        29.65F WCI  20
PINE RIDGE     MOSUNNY   39  30  70 SW5       29.57F
SPEARFISH      FOG       21  19  93 CALM      29.61F VSB<1/4
WINNER         CLOUDY    36  28  73 SE12      29.68F
$$

SDZ004>011-016>023-039-040-232100-
NORTHEAST SOUTH DAKOTA

CITY           SKY/WX    TMP DP  RH WIND       PRES   REMARKS
ABERDEEN       CLOUDY    31  23  72 CALM      29.79F
WATERTOWN      CLOUDY    29  26  89 CALM      29.77F
BROOKINGS      CLOUDY    30  26  85 NE7       29.78F WCI  23
SISSETON         N/A     32  27  81 CALM      29.80S
$$

SDZ017-020-022-023-036>040-048>070-232100-
SOUTHEAST SOUTH DAKOTA

CITY           SKY/WX    TMP DP  RH WIND       PRES   REMARKS
SIOUX FALLS    CLOUDY    31  28  89 E6        29.79F WCI  25
HURON          CLOUDY    31  26  82 E6        29.77F WCI  25
CHAMBERLAIN    CLOUDY    33  30  87 SE10      29.73F WCI  25
MITCHELL       CLOUDY    33  27  78 E7        29.78F WCI  27
YANKTON        CLOUDY    32  25  74 E7        29.79F WCI  26
$$

ABBREVIATIONS USED IN REMARKS
   TC - TEMPERATURE IN CELSIUS
  WCI - WIND CHILL INDEX
   HX - HEAT INDEX
  VSB - VISIBILITY





USA.gov is the U.S. government's official web portal to all federal, state and local government web resources and services.